Tracking 17782 objects as of 25-July-2016
HD Live streaming from Space Station
objects crossing your sky now

SL-16 DEB

Track SL-16 DEB now!
10-day predictions


NORAD ID: 22289
Int'l Code: 1992-093D
Perigee: 751.7 km
Apogee: 837.1 km
Inclination: 70.8 °
Period: 100.6 minutes
Semi major axis: 7165 km
RCS: 0.0658 m2 (small)
Launch date: December 25, 1992
Source: Commonwealth of Independent States (former USSR) (CIS)
Launch site: TYURATAM MISSILE AND SPACE COMPLEX (TTMTR)

Note: This is SATELLITE DEBRIS
Your satellite tracking list
Your tracking list is empty





NASA's NSSDC Master Catalog

Two Line Element Set (TLE):
1 22289U 92093D   16205.61955554 +.00000020 +00000-0 +26139-4 0  9997
2 22289 070.8321 272.5557 0059622 134.8186 016.6727 14.31342972230330
Source of the keplerian elements: AFSPC

N2YO: 644